CW2099 Weather Reports


Display with metric or nautical units.
time (UTC)temp
F
wind
direction
speed
MPH
gust
MPH
rain 1hr
in
rain 24hr
in
rain mn
in
humidity
%
barometer
mb
20260508190049 59 61 3.0 8.0 0.00 0.00 0.00 18 1004.7
20260508184545 59 28 3.0 9.0 0.00 0.00 0.00 17 1004.6
20260508183043 58 92 3.0 8.0 0.00 0.00 0.00 18 1004.7
20260508181540 59 61 3.0 8.0 0.00 0.00 0.00 18 1005.0
20260508180040 58 9 7.0 13.0 0.00 0.00 0.00 18 1005.2
20260508174540 59 126 3.0 8.0 0.00 0.00 0.00 17 1005.4
20260508173035 59 50 3.0 10.0 0.00 0.00 0.00 18 1005.6
20260508171533 58 80 3.0 8.0 0.00 0.00 0.00 18 1005.9
20260508170030 57 130 1.0 6.0 0.00 0.00 0.00 19 1006.2
20260508164533 55 41 2.0 14.0 0.00 0.00 0.00 19 1006.6
20260508163026 56 26 2.0 11.0 0.00 0.00 0.00 18 1006.7
20260508161524 56 128 2.0 7.0 0.00 0.00 0.00 20 1006.8
20260508160030 55 76 2.0 13.0 0.00 0.00 0.00 19 1006.8
20260508154524 55 59 2.0 11.0 0.00 0.00 0.00 20 1006.9
20260508153020 54 137 1.0 4.0 0.00 0.00 0.00 20 1007.2
20260508151517 53 148 2.0 6.0 0.00 0.00 0.00 21 1007.4
20260508150015 53 74 1.0 8.0 0.00 0.00 0.00 22 1007.5
20260508144514 53 118 1.0 3.0 0.00 0.00 0.00 23 1007.6
20260508143010 51 130 1.0 6.0 0.00 0.00 0.00 27 1007.7
20260508141507 49 129 1.0 4.0 0.00 0.00 0.00 29 1008.1
20260508140005 48 53 1.0 5.0 0.00 0.00 0.00 33 1008.3
20260508134602 46 81 1.0 4.0 0.00 0.00 0.00 36 1008.2
20260508133055 44 78 2.0 5.0 0.00 0.00 0.00 36 1008.2
20260508131558 43 54 2.0 5.0 0.00 0.00 0.00 38 1008.2
20260508130107 42 117 2.0 4.0 0.00 0.00 0.00 39 1008.2
20260508124549 40 67 1.0 5.0 0.00 0.00 0.00 42 1008.3
20260508123043 39 34 2.0 6.0 0.00 0.00 0.00 45 1008.2
20260508121542 38 46 2.0 5.0 0.00 0.00 0.00 46 1008.1
20260508120037 35 41 1.0 3.0 0.00 0.00 0.00 50 1008.1
20260508114536 33 79 0.0 2.0 0.00 0.00 0.00 55 1008.0
20260508113041 31 101 0.0 0.0 0.00 0.00 0.00 59 1008.1
20260508111535 30 101 0.0 0.0 0.00 0.00 0.00 60 1008.1
20260508110036 30 101 0.0 0.0 0.00 0.00 0.00 60 1008.0
20260508104601 30 101 0.0 0.0 0.00 0.00 0.00 59 1008.1
20260508103043 30 101 0.0 0.0 0.00 0.00 0.00 59 1008.2
20260508101532 31 101 0.0 0.0 0.00 0.00 0.00 58 1008.1
20260508100030 31 101 0.0 0.0 0.00 0.00 0.00 58 1008.2
20260508094527 32 101 0.0 0.0 0.00 0.00 0.00 58 1008.2
20260508093024 33 101 1.0 2.0 0.00 0.00 0.00 57 1008.3
20260508091521 33 101 0.0 0.0 0.00 0.00 0.00 56 1008.3
20260508090020 34 101 0.0 0.0 0.00 0.00 0.00 56 1008.6
20260508084519 35 101 0.0 2.0 0.00 0.00 0.00 55 1008.7
20260508083018 35 101 0.0 0.0 0.00 0.00 0.00 54 1008.7
20260508081518 35 101 0.0 0.0 0.00 0.00 0.00 55 1008.7
20260508080154 35 101 0.0 0.0 0.00 0.00 0.00 55 1008.8
20260508074516 35 101 0.0 0.0 0.00 0.00 0.00 58 1008.9
20260508073014 35 101 0.0 0.0 0.00 0.00 0.00 58 1009.0
20260508071514 35 101 0.0 0.0 0.00 0.00 0.00 58 1009.0
20260508070020 35 101 0.0 0.0 0.00 0.00 0.00 57 1009.2
20260508064510 35 101 0.0 0.0 0.00 0.00 0.00 57 1009.2
20260508063008 35 101 0.0 0.0 0.00 0.00 0.00 58 1009.3
20260508061508 35 101 0.0 0.0 0.00 0.00 0.00 56 1009.6
20260508060005 35 101 0.0 0.0 0.00 0.00 0.00 54 1009.7
20260508054502 35 101 0.0 0.0 0.00 0.00 0.00 52 1009.7
20260508053106 36 101 0.0 0.0 0.00 0.00 0.00 50 1009.7
20260508051555 37 101 0.0 0.0 0.00 0.00 0.00 50 1009.9
20260508050058 37 101 0.0 0.0 0.00 0.00 0.00 48 1010.0
20260508044551 38 101 0.0 0.0 0.00 0.00 0.00 47 1010.0
20260508043101 39 101 0.0 0.0 0.00 0.00 0.00 47 1010.0
20260508041550 39 101 0.0 0.0 0.00 0.00 0.00 45 1010.0
20260508040050 40 101 0.0 1.0 0.00 0.00 0.00 42 1010.0
20260508034551 41 101 0.0 0.0 0.00 0.00 0.00 40 1010.1
20260508033051 41 101 0.0 0.0 0.00 0.00 0.00 39 1010.2
20260508031553 42 101 0.0 0.0 0.00 0.00 0.00 38 1010.2
20260508030057 43 101 0.0 0.0 0.00 0.00 0.00 39 1010.4
20260508024556 43 101 0.0 2.0 0.00 0.00 0.00 36 1010.5
20260508023049 43 253 1.0 3.0 0.00 0.00 0.00 36 1010.4
20260508021549 43 253 0.0 0.0 0.00 0.00 0.00 34 1010.3
20260508020049 44 253 0.0 0.0 0.00 0.00 0.00 33 1010.3
20260508014547 44 253 0.0 2.0 0.00 0.00 0.00 32 1010.0
20260508013048 45 126 1.0 6.0 0.00 0.00 0.00 30 1009.8
20260508011549 45 48 1.0 3.0 0.00 0.00 0.00 29 1009.6
20260508004547 45 52 0.0 0.0 0.00 0.00 0.00 26 1009.2
20260508003047 46 52 0.0 2.0 0.00 0.00 0.00 25 1009.1
20260508001548 46 89 0.0 3.0 0.00 0.00 0.00 24 1009.0
20260508000045 46 59 0.0 4.0 0.00 0.00 0.00 25 1008.9
20260507234547 46 329 1.0 9.0 0.00 0.00 0.00 25 1009.0
20260507233045 46 57 1.0 6.0 0.00 0.00 0.00 25 1009.0
20260507231544 47 67 1.0 6.0 0.00 0.00 0.00 24 1008.9
20260507230043 47 33 0.0 4.0 0.00 0.00 0.00 25 1009.2
20260507224542 46 188 0.0 2.0 0.00 0.00 0.00 25 1009.6
20260507223042 46 103 1.0 3.0 0.00 0.00 0.00 25 1009.4
20260507221540 46 73 0.0 6.0 0.00 0.00 0.00 27 1009.6
20260507220040 47 245 0.0 3.0 0.00 0.00 0.00 25 1009.5
20260507214538 47 105 1.0 6.0 0.00 0.00 0.00 25 1009.6
20260507213040 47 262 0.0 6.0 0.00 0.00 0.00 27 1009.4
20260507211535 46 39 1.0 3.0 0.00 0.00 0.00 31 1009.6
20260507210033 45 52 1.0 4.0 0.00 0.00 0.00 29 1009.7
20260507204532 45 105 1.0 9.0 0.00 0.00 0.00 30 1009.8
20260507203032 46 57 2.0 4.0 0.00 0.00 0.00 30 1010.0
20260507201536 45 65 2.0 4.0 0.00 0.00 0.00 30 1010.2
20260507200029 45 104 2.0 5.0 0.00 0.00 0.00 29 1010.2
20260507194527 45 42 1.0 6.0 0.00 0.00 0.00 33 1010.2
20260507193029 44 65 3.0 9.0 0.00 0.00 0.00 35 1010.5
20260507191526 44 49 1.0 3.0 0.00 0.00 0.00 36 1010.5